Location: Cantaing
(50.1487°N, 3.1675°E)
Time: 15:17:40
(UTC+00:00)

CZ-4C R/B - Visible Passes

Search period start: 11 April 2026 00:00
Search period end: 21 April 2026 00:00
Orbit: 478 x 1499 km, 63.4° (Epoch: 11 April)

Date Brightness Start Highest point End Pass type
(mag) Time Alt. Az. Time Alt. Az. Time Alt. Az.
11 Apr 2.8 03:07:02 19° S 03:09:36 38° ESE 03:14:24 10° NE visible
12 Apr 4.1 01:50:54 11° ESE 01:52:06 12° ESE 01:53:41 10° E visible
12 Apr 1.8 03:35:49 19° SW 03:38:54 82° SE 03:44:24 10° NE visible
13 Apr 3.1 02:19:39 23° SE 02:20:55 27° ESE 02:25:09 10° ENE visible
13 Apr 2.2 04:04:33 12° WSW 04:08:36 54° NW 04:14:13 10° NE visible
14 Apr 2.0 02:48:21 34° S 02:50:04 59° SE 02:55:20 10° NE visible
15 Apr 3.6 01:32:07 19° ESE 01:32:18 19° ESE 01:35:43 10° ENE visible
15 Apr 1.9 03:17:01 25° WSW 03:19:35 70° NW 03:25:12 10° NE visible
16 Apr 2.3 02:00:44 40° SE 02:01:17 42° ESE 02:06:12 10° NE visible
16 Apr 2.7 03:45:38 13° W 03:49:28 41° NNW 03:55:00 10° NE visible
17 Apr 4.1 00:44:26 13° E 00:44:26 13° E 00:45:51 10° E visible
17 Apr 1.7 02:29:20 47° SW 02:30:38 88° SE 02:36:10 10° NE visible
17 Apr 3.5 04:15:22 10° W 04:19:37 29° NNW 04:24:56 10° NE visible
18 Apr 3.0 01:13:00 29° ESE 01:13:00 29° ESE 01:16:58 10° ENE visible
18 Apr 2.4 02:57:54 25° WSW 03:00:21 51° NW 03:05:58 10° NE visible
19 Apr 1.7 01:41:32 64° SE 01:41:45 65° SE 01:47:05 10° NE visible
19 Apr 3.2 03:26:26 12° W 03:30:24 33° NNW 03:35:48 10° NE visible
20 Apr 3.7 00:25:09 19° E 00:25:09 19° E 00:27:35 10° ENE visible
20 Apr 2.0 02:10:02 45° WSW 02:11:18 66° NW 02:16:56 10° NE visible
20 Apr 3.8 03:56:27 10° WNW 04:00:39 26° NNW 04:05:52 10° NE visible
